Spokane Fairchild, WA

9:53 PM PDT on August 22, 2017 (GMT -0700)
Fairchild Air Force Base

Weather History for KSKA - March, 2014

Change the Weather History Date:

Sunday, March 16, 2014

  Actual Average Record
Temperature  
Mean Temperature 48 °F -  
Max Temperature 56 °F 47 °F 57 °F (2004)
Min Temperature 40 °F 30 °F 24 °F (2002)
Degree Days  
Heating Degree Days 18    
Moisture  
Dew Point 40 °F    
Average Humidity 75    
Maximum Humidity 95    
Minimum Humidity 58    
Precipitation  
Precipitation 0.02 in - - ()
Sea Level Pressure  
Sea Level Pressure 29.98 in    
Wind  
Wind Speed 14 mph (SSW)    
Max Wind Speed 23 mph    
Max Gust Speed 32 mph    
Visibility 10 miles    
Events Rain    
Averages and records for this station are not official NWS values.
T = Trace of Precipitation, MM = Missing Value Source: NWS Daily Summary

Daily Weather History Graph

Daily Weather History Graph

Search for Another Location

Airport or City:

Trip Planner

Search our weather history database for the weather conditions in past years. The results will help you decide how hot, cold, wet, or windy it might be!

Date:

Astronomy

Mar. 16, 2014 Rise Set
Actual Time 7:01 AM PDT 6:57 PM PDT
Civil Twilight 6:30 AM PDT 7:28 PM PDT
Nautical Twilight 5:54 AM PDT 8:04 PM PDT
Astronomical Twilight 5:18 AM PDT 8:41 PM PDT
Moon 7:23 PM PDT (3/16) 6:45 AM PDT (3/16)
Length of Visible Light 12h 57m
Length of Day
11h 56m
Full, 100% of the Moon is Illuminated
Mar 16
Full
Mar 23
Last Quarter
Mar 30
New
Apr 7
First Quarter
Apr 15
Full

Hourly Weather History & Observations

Time (PDT) Temp. Windchill Dew Point Humidity Pressure Visibility Wind Dir Wind Speed Gust Speed Precip Events Conditions
12:58 AM 41.7 °F 36.7 °F 32.7 °F 70% 30.19 in 10.0 mi South 8.1 mph - N/A   Mostly Cloudy
1:17 AM 41.0 °F 34.3 °F 32.0 °F 70% 30.13 in 10.0 mi South 11.5 mph - N/A   Overcast
1:48 AM 42.8 °F 36.6 °F 32.0 °F 66% 30.12 in 10.0 mi South 11.5 mph - N/A   Partly Cloudy
1:58 AM 43.2 °F 37.4 °F 32.7 °F 67% 30.17 in 10.0 mi South 10.4 mph - 0.00 in   Mostly Cloudy
2:09 AM 44.6 °F 38.8 °F 32.0 °F 61% 30.14 in 10.0 mi South 11.5 mph - N/A   Mostly Cloudy
2:24 AM 44.6 °F 37.8 °F 32.0 °F 61% 30.13 in 10.0 mi South 15.0 mph - N/A   Overcast
2:58 AM 45.1 °F 38.1 °F 33.3 °F 63% 30.14 in 10.0 mi South 16.1 mph - 0.00 in   Overcast
3:58 AM 45.0 °F 38.9 °F 36.3 °F 72% 30.13 in 10.0 mi SSW 12.7 mph - N/A   Overcast
4:17 AM 44.6 °F 38.1 °F 37.4 °F 76% 30.09 in 10.0 mi SSW 13.8 mph 20.7 mph N/A   Overcast
4:54 AM 44.6 °F 37.8 °F 37.4 °F 76% 30.09 in 10.0 mi SSW 15.0 mph - N/A   Overcast
4:58 AM 44.4 °F 37.2 °F 37.4 °F 76% 30.12 in 10.0 mi SSW 16.1 mph - 0.00 in   Overcast
5:15 AM 44.6 °F 37.2 °F 37.4 °F 76% 30.09 in 10.0 mi SSW 17.3 mph 23.0 mph N/A   Overcast
5:47 AM 44.6 °F 36.9 °F 39.2 °F 81% 30.07 in 10.0 mi SSW 18.4 mph 24.2 mph N/A   Overcast
5:55 AM 44.6 °F 37.4 °F 39.2 °F 81% 30.08 in 10.0 mi SSW 16.1 mph - N/A   Overcast
5:58 AM 44.4 °F 37.2 °F 38.7 °F 80% 30.10 in 10.0 mi SSW 16.1 mph - 0.00 in   Overcast
6:04 AM 44.6 °F 37.4 °F 39.2 °F 81% 30.07 in 10.0 mi SSW 16.1 mph 23.0 mph N/A   Overcast
6:09 AM 44.6 °F 37.2 °F 39.2 °F 81% 30.08 in 10.0 mi SSW 17.3 mph 23.0 mph N/A   Overcast
6:21 AM 44.6 °F 37.4 °F 39.2 °F 81% 30.07 in 10.0 mi South 16.1 mph - N/A   Mostly Cloudy
6:27 AM 44.6 °F 37.8 °F 39.2 °F 81% 30.06 in 10.0 mi South 15.0 mph 24.2 mph N/A   Mostly Cloudy
6:40 AM 42.8 °F 35.8 °F 39.2 °F 87% 30.08 in 10.0 mi SSW 13.8 mph - N/A   Partly Cloudy
6:58 AM 43.2 °F 35.9 °F 38.7 °F 84% 30.11 in 10.0 mi SSW 15.0 mph - 0.00 in   Scattered Clouds
7:19 AM 42.8 °F 35.1 °F 39.2 °F 87% 30.08 in 10.0 mi SSW 16.1 mph - N/A   Partly Cloudy
7:29 AM 42.8 °F 35.4 °F 39.2 °F 87% 30.08 in 10.0 mi SSW 15.0 mph 20.7 mph N/A   Partly Cloudy
7:55 AM 42.8 °F 36.6 °F 39.2 °F 87% 30.08 in 10.0 mi SSW 11.5 mph - N/A   Partly Cloudy
7:58 AM 43.3 °F 36.8 °F 39.6 °F 87% 30.12 in 10.0 mi SSW 12.7 mph - 0.00 in   Partly Cloudy
8:29 AM 44.6 °F 38.1 °F 39.2 °F 81% 30.08 in 10.0 mi SSW 13.8 mph - N/A   Clear
8:30 AM 44.6 °F 37.8 °F 39.2 °F 81% 30.08 in 10.0 mi SSW 15.0 mph - N/A   Clear
8:43 AM 44.6 °F 38.1 °F 41.0 °F 87% 30.08 in 10.0 mi SSW 13.8 mph - N/A   Partly Cloudy
8:45 AM 44.6 °F 37.8 °F 41.0 °F 87% 30.07 in 10.0 mi SSW 15.0 mph - N/A   Partly Cloudy
8:48 AM 44.6 °F 37.8 °F 41.0 °F 87% 30.07 in 10.0 mi SSW 15.0 mph - N/A   Partly Cloudy
8:58 AM 44.6 °F 38.1 °F 40.3 °F 85% 30.12 in 10.0 mi SSW 13.8 mph - 0.00 in   Partly Cloudy
9:58 AM 48.4 °F - 41.5 °F 77% 30.10 in 10.0 mi SSW 19.6 mph - N/A   Partly Cloudy
10:58 AM 50.9 °F - 42.8 °F 74% 30.08 in 10.0 mi SW 16.1 mph 24.2 mph N/A   Clear
11:18 AM 51.8 °F - 42.8 °F 71% 30.04 in 10.0 mi SSW 17.3 mph 21.9 mph N/A   Mostly Cloudy
11:38 AM 53.6 °F - 44.6 °F 72% 30.03 in 10.0 mi SSW 13.8 mph - N/A   Mostly Cloudy
11:43 AM 51.8 °F - 42.8 °F 71% 30.03 in 10.0 mi SW 16.1 mph - N/A   Overcast
11:58 AM 52.2 °F - 43.0 °F 71% 30.05 in 10.0 mi SSW 17.3 mph - N/A   Overcast
12:48 PM 53.6 °F - 42.8 °F 67% 30.01 in 10.0 mi SW 18.4 mph - N/A   Overcast
12:58 PM 54.0 °F - 43.3 °F 67% 30.03 in 10.0 mi SW 18.4 mph - N/A   Overcast
1:18 PM 53.6 °F - 42.8 °F 67% 29.99 in 10.0 mi SW 18.4 mph - N/A   Overcast
1:23 PM 53.6 °F - 42.8 °F 67% 29.99 in 10.0 mi SW 17.3 mph - N/A   Overcast
1:33 PM 53.6 °F - 42.8 °F 67% 29.98 in 10.0 mi SW 18.4 mph - N/A   Overcast
1:43 PM 53.6 °F - 42.8 °F 67% 29.97 in 10.0 mi SW 13.8 mph - N/A   Overcast
1:58 PM 54.3 °F - 43.2 °F 66% 29.99 in 10.0 mi SW 18.4 mph - N/A   Overcast
2:03 PM 53.6 °F - 42.8 °F 67% 29.96 in 10.0 mi SW 16.1 mph - N/A   Overcast
2:08 PM 53.6 °F - 42.8 °F 67% 29.96 in 10.0 mi WSW 19.6 mph 23.0 mph N/A   Overcast
2:18 PM 55.4 °F - 42.8 °F 63% 29.95 in 10.0 mi SW 18.4 mph 23.0 mph N/A   Overcast
2:33 PM 53.6 °F - 42.8 °F 67% 29.94 in 10.0 mi SW 18.4 mph 25.3 mph N/A   Overcast
2:38 PM 53.6 °F - 42.8 °F 67% 29.94 in 10.0 mi SW 17.3 mph 25.3 mph N/A   Overcast
2:58 PM 54.5 °F - 43.0 °F 65% 29.95 in 10.0 mi SW 18.4 mph - N/A   Overcast
3:58 PM 55.9 °F - 42.6 °F 61% 29.91 in 10.0 mi SW 19.6 mph 25.3 mph N/A   Mostly Cloudy
4:05 PM 55.4 °F - 42.8 °F 63% 29.89 in 10.0 mi SW 23.0 mph 25.3 mph N/A Rain Light Rain
4:16 PM 53.6 °F - 42.8 °F 67% 29.88 in 9.0 mi SW 16.1 mph - N/A   Mostly Cloudy
4:35 PM 55.4 °F - 42.8 °F 63% 29.86 in 10.0 mi SW 21.9 mph 28.8 mph N/A Rain Light Rain
4:53 PM 55.4 °F - 41.0 °F 58% 29.84 in 10.0 mi SSW 23.0 mph 28.8 mph N/A   Mostly Cloudy
4:58 PM 54.5 °F - 41.5 °F 62% 29.86 in 10.0 mi SSW 21.9 mph 28.8 mph 0.00 in   Mostly Cloudy
5:00 PM 55.4 °F - 41.0 °F 58% 29.83 in 10.0 mi SW 20.7 mph 29.9 mph N/A Rain Light Rain
5:25 PM 55.4 °F - 41.0 °F 58% 29.82 in 10.0 mi SSW 23.0 mph 32.2 mph N/A   Mostly Cloudy
5:58 PM 53.4 °F - 40.6 °F 62% 29.82 in 10.0 mi SSW 20.7 mph 32.2 mph 0.00 in   Scattered Clouds
6:58 PM 51.6 °F - 39.9 °F 64% 29.79 in 10.0 mi SW 11.5 mph - N/A   Partly Cloudy
7:58 PM 49.1 °F - 41.5 °F 75% 29.79 in 10.0 mi West 10.4 mph - N/A   Scattered Clouds
8:18 PM 48.2 °F - 42.8 °F 82% 29.75 in 10.0 mi WSW 8.1 mph - N/A Rain Light Rain
8:54 PM 44.6 °F 39.7 °F 42.8 °F 93% 29.74 in 10.0 mi West 9.2 mph - N/A   Scattered Clouds
8:58 PM 45.1 °F 40.8 °F 42.6 °F 91% 29.77 in 10.0 mi West 8.1 mph - 0.00 in   Scattered Clouds
9:06 PM 44.6 °F 40.2 °F 41.0 °F 87% 29.74 in 10.0 mi WSW 8.1 mph - N/A Rain Light Rain
9:58 PM 42.6 °F 36.3 °F 40.5 °F 92% 29.76 in 10.0 mi WSW 11.5 mph - 0.00 in Rain Light Rain
10:58 PM 40.8 °F 36.9 °F 39.2 °F 94% 29.73 in 10.0 mi SW 5.8 mph - 0.01 in Rain Light Rain
11:03 PM 41.0 °F 37.1 °F 39.2 °F 93% 29.69 in 10.0 mi SW 5.8 mph - N/A   Mostly Cloudy
11:14 PM 41.0 °F 36.4 °F 39.2 °F 93% 29.69 in 10.0 mi South 6.9 mph - N/A Rain Light Rain
11:48 PM 41.0 °F 35.8 °F 39.2 °F 93% 29.67 in 10.0 mi South 8.1 mph - N/A   Overcast
11:52 PM 41.0 °F 35.2 °F 39.2 °F 93% 29.66 in 10.0 mi South 9.2 mph - N/A Rain Light Rain
11:58 PM 40.5 °F 34.1 °F 39.2 °F 95% 29.68 in 10.0 mi South 10.4 mph - 0.01 in Rain Light Rain